Location: Unspecified
(48.2082°N, 0.0000°E)
Time: 05:27:25
(UTC+00:00)

A-11 Canister half - Pass Details

Date: 18 August 2020
Orbit: 1514 x 1686 km, 47.2° (Epoch: 21 September)

Event Time Altitude Azimuth Distance (km) Brightness Sun altitude
Rises 19:54:39 0° 282° (WNW) 4,773 13.3 -7.9°
Reaches altitude 10° 19:57:42 10° 281° (W) 3,810 12.4 -8.4°
Maximum altitude 20:07:23 73° 199° (SSW) 1,700 9.2 -9.8°
Enters shadow 20:16:38 13° 118° (ESE) 3,688 10.3 -11.1°
